Stations météo

réclame
Mon MeteoGroup
Storlien-Visjovalen A, Suède (2207): Température de l'air & dewpoint: 14.01.2019 12:00:00 - 20.01.2019 12:00:00 (CET)Storlien-Visjovalen A, Suède (2207): Vitesse du vent & gusts: 14.01.2019 12:00:00 - 20.01.2019 12:00:00 (CET)Storlien-Visjovalen A, Suède (2207): Direction du vent: 14.01.2019 12:00:00 - 20.01.2019 12:00:00 (CET)Storlien-Visjovalen A, Suède (2207): reduced air pressure: 14.01.2019 12:00:00 - 20.01.2019 12:00:00 (CET)Storlien-Visjovalen A, Suède (2207): visibility: 14.01.2019 12:00:00 - 20.01.2019 12:00:00 (CET)Storlien-Visjovalen A, Suède (2207): Quantités de précipitations: 14.01.2019 12:00:00 - 20.01.2019 12:00:00 (CET)
Date & Time tt [°C] td [°C] ff [km/h] ff [knt] fx [km/h] fx [knt] dd ppp [hPa] vv [km] rr [mm]
20.01.2019 12:00:00 -5,7 -7,1 5 3 23 12 WSW 1014,7 3,6 0,1
20.01.2019 11:00:00 -5,9 -7,4 3 1 23 12 S 1014,7 6 0,0
20.01.2019 10:00:00 -6,0 -7,2 13 7 22 12 WNW 1014,6 24 0,0
20.01.2019 09:00:00 -6,0 -7,2 10 5 25 13 WNW 1014,1 50 0,0
20.01.2019 08:00:00 -5,9 -7,3 10 5 27 15 WNW 1013,9 32 0,0
20.01.2019 07:00:00 -6,0 -7,1 12 7 28 15 WNW 1013,4 35 0,0
20.01.2019 06:00:00 -6,1 -7,0 14 7 28 15 W 1013,1 1,0 0,1
20.01.2019 05:00:00 -6,8 -7,9 14 8 29 16 W 1012,9 50 0,0
20.01.2019 04:00:00 -6,7 -8,1 13 7 29 16 W 1012,4 38 0,0
20.01.2019 03:00:00 -6,8 -8,0 14 8 27 15 WNW 1012,1 50 0,0
20.01.2019 02:00:00 -7,2 -8,3 11 6 33 18 W 1012,3 50 0,0
20.01.2019 01:00:00 -6,6 -7,7 14 7 33 18 WNW 1011,6 27 0,0
20.01.2019 00:00:00 -7,0 -8,2 15 8 29 15 W 1011,1 42 0,0
19.01.2019 23:00:00 -6,7 -7,9 16 9 31 17 WNW 1010,7 49 0,0
19.01.2019 22:00:00 -7,2 -8,4 14 7 31 17 WNW 1010,5 11 0,1
19.01.2019 21:00:00 -6,7 -7,8 9 5 29 16 WNW 1009,8 1,3 0,1
19.01.2019 20:00:00 -6,7 -7,8 17 9 30 16 WNW 1009,5 7 0,0
19.01.2019 19:00:00 -7,0 -8,2 14 7 30 16 WNW 1009,3 32 0,0
19.01.2019 18:00:00 -6,9 -8,1 9 5 34 18 WNW 1008,8 50 0,0
19.01.2019 17:00:00 -6,5 -7,7 20 11 34 18 WNW 1008,4 15 0,0
19.01.2019 16:00:00 -6,4 -7,5 19 11 32 17 WNW 1008,0 30 0,4
19.01.2019 15:00:00 -6,5 -7,4 16 9 39 21 WNW 1007,7 0,3 0,8
19.01.2019 14:00:00 -6,4 -7,7 22 12 40 21 WNW 1007,3 9 -
19.01.2019 13:00:00 -6,3 -7,7 20 11 40 22 WNW 1006,9 23 0,0
19.01.2019 12:00:00 -6,3 -7,7 22 12 42 23 WNW 1006,1 10 0,1
19.01.2019 11:00:00 -6,0 -7,4 25 14 47 25 W 1005,1 6 0,3
19.01.2019 10:00:00 -5,6 -6,7 19 10 47 25 WNW 1004,2 3,2 0,2
19.01.2019 09:00:00 -5,2 -6,0 19 11 49 27 WNW 1003,0 0,4 0,1
19.01.2019 08:00:00 -4,7 -5,7 29 16 52 28 WNW 1001,5 0,3 0,4
19.01.2019 07:00:00 -4,3 -5,3 27 15 52 28 W 1001,0 0,4 0,3
19.01.2019 06:00:00 -4,9 -6,1 17 9 31 17 SW 1001,5 0,9 0,3
19.01.2019 05:00:00 -6,3 -8,6 15 8 29 16 SSW 1002,1 15 0,0
19.01.2019 04:00:00 -5,8 -7,8 13 7 29 16 SW 1003,1 4,1 0,1
19.01.2019 03:00:00 -5,4 -7,4 15 8 29 16 SW 1003,5 12 0,0
19.01.2019 02:00:00 -5,5 -7,5 13 7 29 16 SW 1004,1 27 0,0
19.01.2019 01:00:00 -5,5 -6,9 15 8 30 16 WSW 1004,7 13 0,1
19.01.2019 00:00:00 -5,3 -6,4 16 9 32 18 W 1005,2 18 0,3
18.01.2019 23:00:00 -5,1 -5,9 10 6 32 18 W 1005,6 0,8 0,4
18.01.2019 22:00:00 -5,0 -5,8 16 8 30 16 W 1005,7 0,7 0,6
18.01.2019 21:00:00 -5,2 -6,0 11 6 31 17 W 1005,6 0,4 0,2
18.01.2019 20:00:00 -5,1 -6,1 17 9 31 17 WNW 1005,4 7 0,7
18.01.2019 19:00:00 -5,3 -6,1 12 7 29 15 WNW 1005,3 3,9 0,1
18.01.2019 18:00:00 -5,2 -6,2 13 7 42 23 W 1005,3 0,5 1,5
18.01.2019 17:00:00 -5,1 -6,2 18 10 42 23 WNW 1005,2 49 0,0
18.01.2019 16:00:00 -5,0 -6,1 21 11 40 22 W 1004,6 3,3 0,1
18.01.2019 15:00:00 -5,1 -6,5 24 13 40 22 WNW 1004,2 1,6 0,1
18.01.2019 14:00:00 -5,4 -6,5 16 9 39 21 WNW 1003,8 1,9 0,1
18.01.2019 13:00:00 -5,7 -6,8 19 11 37 20 WNW 1003,5 14 0,1
18.01.2019 12:00:00 -5,6 -6,8 17 9 34 19 WNW 1002,9 50 0,0
18.01.2019 11:00:00 -5,6 -6,6 17 9 32 17 WNW 1002,5 0,7 0,0
18.01.2019 10:00:00 -5,4 -6,4 19 11 32 17 WNW 1001,8 1,5 0,4
18.01.2019 09:00:00 -5,6 -6,6 15 8 26 14 WNW 1001,0 0,8 0,1
18.01.2019 08:00:00 -5,7 -6,8 13 7 28 15 W 1000,5 7 0,1
18.01.2019 07:00:00 -5,6 -6,6 15 8 28 15 WNW 999,7 2,9 0,2
18.01.2019 06:00:00 -5,7 -6,6 14 8 36 19 WNW 999,4 1,0 0,4
18.01.2019 05:00:00 -5,8 -6,7 19 10 36 19 W 999,4 8 0,0
18.01.2019 04:00:00 - - - - 39 21 - - - -
18.01.2019 03:00:00 -5,8 -6,9 21 12 39 21 WNW 999,2 3,7 0,0
18.01.2019 02:00:00 -5,9 -7,1 21 12 45 24 W 998,9 1,4 0,0
18.01.2019 01:00:00 -6,1 -7,5 25 13 45 24 W 999,1 16 0,0
18.01.2019 00:00:00 -6,4 -7,6 24 13 43 23 WNW 999,0 0,9 0,0
17.01.2019 23:00:00 -6,2 -7,3 21 11 44 24 WNW 998,7 0,7 0,0
17.01.2019 22:00:00 -6,1 -7,2 20 11 46 25 WNW 998,2 0,9 0,1
17.01.2019 21:00:00 -6,2 -7,3 26 14 49 27 WNW 997,7 0,6 0,2
17.01.2019 20:00:00 -6,1 -7,2 25 13 49 27 WNW 997,1 1,3 0,0
17.01.2019 19:00:00 -5,7 -6,9 25 14 54 29 WNW 996,4 2,5 0,0
17.01.2019 18:00:00 -5,5 -6,5 27 15 54 29 WNW 995,7 0,6 0,1
17.01.2019 17:00:00 -5,8 -6,7 13 7 40 21 NW 995,1 0,5 0,1
17.01.2019 16:00:00 -5,9 -6,7 18 10 37 20 WNW 994,4 5 0,1
17.01.2019 15:00:00 -7,7 -8,9 17 9 37 20 NW 994,1 6 0,1
17.01.2019 14:00:00 -8,0 -9,3 18 10 34 18 W 993,4 3,4 0,2
17.01.2019 13:00:00 -8,3 -9,6 6 3 18 10 NW 994,0 1,7 0,3
17.01.2019 12:00:00 -9,9 -11,2 3 1 14 7 ENE 994,2 4,0 0,1
17.01.2019 11:00:00 -11,1 -12,6 3 1 14 7 NE 994,4 0,9 0,0
17.01.2019 10:00:00 -10,8 -12,1 5 3 10 5 NNE 994,0 1,4 0,0
17.01.2019 09:00:00 -12,6 -13,8 5 3 10 5 SE 994,1 1,4 0,0
17.01.2019 08:00:00 -11,7 -13,3 4 2 12 6 N 993,0 22 0,0
17.01.2019 07:00:00 -10,8 -12,4 5 3 12 6 NW 992,1 3,1 0,2
17.01.2019 06:00:00 -11,1 -12,6 3 2 12 6 NNW 991,4 1,6 0,2
17.01.2019 05:00:00 -11,5 -13,1 2 1 5 3 W 990,6 2,9 0,2
17.01.2019 04:00:00 -11,7 -13,3 2 1 5 3 NW 989,7 2,1 0,1
17.01.2019 03:00:00 -11,7 -13,3 0 0 6 3 N 989,0 0,6 0,2
17.01.2019 02:00:00 -11,8 -13,5 0 0 6 3 N 988,0 2,0 0,1
17.01.2019 01:00:00 -11,3 -12,9 2 1 7 4 W 987,6 1,1 0,4
17.01.2019 00:00:00 -11,2 -12,9 0 0 7 4 N 987,2 0,5 0,3
16.01.2019 23:00:00 -11,2 -13,0 4 2 7 4 NNE 986,9 13 0,0
16.01.2019 22:00:00 -10,9 -12,6 2 1 8 5 ENE 986,2 3,0 0,0
16.01.2019 21:00:00 -10,6 -12,3 4 2 9 5 ESE 985,9 6 0,0
16.01.2019 20:00:00 -10,4 -12,0 3 1 10 6 ENE 985,5 45 0,0
16.01.2019 19:00:00 -10,4 -12,0 4 2 22 12 NNW 985,3 6 0,0
16.01.2019 18:00:00 -9,7 -11,5 2 1 24 13 NW 984,9 30 0,1
16.01.2019 17:00:00 -7,8 -9,4 16 9 24 13 SE 984,7 2,0 0,5
16.01.2019 16:00:00 -8,2 -9,7 8 4 22 12 ESE 985,2 1,2 0,9
16.01.2019 15:00:00 -8,2 -10,0 8 4 22 12 E 985,5 2,1 0,5
16.01.2019 14:00:00 -9,1 -10,3 5 3 10 6 E 986,2 1,3 0,4
16.01.2019 13:00:00 -13,2 -15,2 4 2 7 4 ENE 987,7 5 0,0
16.01.2019 12:00:00 -15,3 -17,4 0 0 7 4 N 989,1 50 0,0
16.01.2019 11:00:00 -16,5 -18,4 0 0 7 4 N 990,6 50 0,0
16.01.2019 10:00:00 -17,7 -19,7 2 1 6 3 WNW 991,8 50 0,0
16.01.2019 09:00:00 -19,2 -21,5 3 1 13 7 WNW 993,0 50 0,0
16.01.2019 08:00:00 -20,2 -22,9 3 1 16 8 WNW 993,8 50 -
16.01.2019 07:00:00 -17,1 -19,2 11 6 16 8 ESE 994,1 50 0,0
16.01.2019 06:00:00 -14,6 -17,0 7 4 14 7 ESE 994,7 50 0,0
16.01.2019 05:00:00 -20,6 -22,9 8 5 14 7 E 996,2 50 0,0
16.01.2019 04:00:00 -20,9 -23,2 2 1 6 4 SSE 996,7 50 0,0
16.01.2019 03:00:00 -20,4 -22,7 2 1 10 5 NNE 996,9 50 0,0
16.01.2019 02:00:00 -17,9 -20,1 3 1 10 5 E 996,9 50 0,0
16.01.2019 01:00:00 -14,9 -17,1 5 3 9 5 ENE 996,7 50 0,0
16.01.2019 00:00:00 -14,4 -16,2 3 1 9 5 NNW 996,8 50 0,0
15.01.2019 23:00:00 -13,9 -15,7 4 2 10 6 N 996,5 50 0,0
15.01.2019 22:00:00 -13,3 -14,6 5 3 10 6 W 996,2 50 0,0
15.01.2019 21:00:00 -14,1 -15,9 5 3 10 5 W 996,0 50 0,0
15.01.2019 20:00:00 -15,4 -17,2 2 1 6 4 NW 995,8 50 0,0
15.01.2019 19:00:00 -13,3 -15,4 3 1 16 9 N 995,1 50 0,0
15.01.2019 18:00:00 -10,2 -12,4 5 3 16 9 N 994,1 50 0,0
15.01.2019 17:00:00 -9,0 -11,1 8 4 12 7 NNW 993,6 50 0,0
15.01.2019 16:00:00 -9,5 -11,7 3 2 21 12 NNE 993,1 50 0,0
15.01.2019 15:00:00 -8,2 -10,4 4 2 24 13 NE 992,8 50 0,0
15.01.2019 14:00:00 -7,2 -10,1 12 7 24 13 SSW 992,4 50 0,0
15.01.2019 13:00:00 -7,2 -9,4 9 5 22 12 SSW 992,7 7 0,0
15.01.2019 12:00:00 -7,1 -9,2 13 7 22 12 SSW 993,1 4,9 0,0
15.01.2019 11:00:00 -7,4 -9,8 7 4 18 10 SW 993,7 50 0,0
15.01.2019 10:00:00 -7,2 -9,6 5 3 20 11 SW 993,9 31 0,0
15.01.2019 09:00:00 -7,0 -9,2 6 3 20 11 SW 994,1 37 0,0
15.01.2019 08:00:00 -6,5 -8,5 10 5 19 10 SW 994,6 30 0,0
15.01.2019 07:00:00 -7,0 -8,6 8 4 24 13 WSW 995,5 35 0,1
15.01.2019 06:00:00 -6,6 -8,3 11 6 25 13 W 995,9 36 0,0
15.01.2019 05:00:00 -6,8 -8,2 11 6 32 17 W 996,6 50 0,0
15.01.2019 04:00:00 -7,1 -8,5 18 10 38 21 W 996,9 50 0,0
15.01.2019 03:00:00 -6,1 -7,3 16 9 38 21 W 996,8 20 0,0
15.01.2019 02:00:00 -5,8 -6,9 15 8 40 22 W 996,7 3,6 0,0
15.01.2019 01:00:00 -5,7 -6,8 23 12 43 23 WNW 996,4 23 0,4
15.01.2019 00:00:00 -5,3 -6,3 14 8 48 26 WNW 996,1 9 0,3
14.01.2019 23:00:00 -5,0 -6,0 23 13 48 26 WNW 995,2 2,4 0,1
14.01.2019 22:00:00 -5,0 -6,0 18 10 35 19 WNW 994,9 8 0,0
14.01.2019 21:00:00 -5,0 -5,8 14 7 32 17 WNW 994,7 0,6 0,2
14.01.2019 20:00:00 -5,2 -6,2 18 10 32 17 WNW 994,4 12 0,1
14.01.2019 19:00:00 -5,6 -6,4 9 5 29 16 NW 993,7 0,9 0,4
14.01.2019 18:00:00 -5,8 -6,7 10 6 35 19 NW 993,2 1,1 0,1
14.01.2019 17:00:00 -5,4 -7,4 21 11 45 24 WNW 992,4 50 0,0
14.01.2019 16:00:00 -5,8 -7,6 19 10 45 24 NW 990,9 40 0,0
14.01.2019 15:00:00 -4,9 -5,7 23 12 39 21 NW 989,7 1,7 0,3
14.01.2019 14:00:00 -5,6 -6,4 16 9 36 19 NW 988,2 0,6 0,6
14.01.2019 13:00:00 -5,1 -6,0 19 10 40 22 NW 987,5 2,4 0,1
14.01.2019 12:00:00 -5,2 -6,2 17 9 59 32 NW 986,7 50 0,0

tt = Température de l'air
td = dewpoint
ff = Vitesse du vent
fx = gusts
dd = Direction du vent
ppp = reduced air pressure
vv = visibility
rr = Quantités de précipitations

stations d'obs. à proximité